Location: Casteau
(50.5142°N, 4.0161°E)
Time: 18:31:02
(UTC+00:00)

S-56A Canister/Altair - Pass Details

Date: 02 August 2021
Orbit: 632 x 2500 km, 38.9° (Epoch: 20 September)

Event Time Altitude Azimuth Distance (km) Brightness Sun altitude
Rises 16:35:27 0° 256° (WSW) 5,788 13.3 25.3°
Reaches altitude 10° 16:39:08 10° 252° (WSW) 4,936 13.2 24.7°
Maximum altitude 16:53:02 53° 182° (S) 2,923 10.8 22.5°
Drops below altitude 10° 17:06:36 10° 112° (ESE) 4,823 11.1 20.3°
Sets 17:10:09 0° 108° (ESE) 5,652 11.4 19.8°
